Location: Arpaise
(41.0333°N, 14.7333°E)
Time: 08:00:39
(UTC+00:00)

Cosmos 2074 Rocket - Pass Details

Date: 05 July 2020
Orbit: 967 x 986 km, 82.9° (Epoch: 06 August)

Event Time Altitude Azimuth Distance (km) Brightness Sun altitude
Exits shadow 21:29:14 31° 203° (SSW) 1,624 4.8 -22.5°
Maximum altitude 21:32:19 70° 279° (W) 1,031 4.1 -22.7°
Drops below altitude 10° 21:38:32 10° 3° (N) 2,721 7.2 -23.1°
Sets 21:41:04 0° 6° (N) 3,670 8.0 -23.3°
